EDT,Max TemperatureF,Mean TemperatureF,Min TemperatureF,Max Dew PointF,MeanDew PointF,Min DewpointF,Max Humidity, Mean Humidity, Min Humidity, Max Sea Level PressureIn, Mean Sea Level PressureIn, Min Sea Level PressureIn, Max VisibilityMiles, Mean VisibilityMiles, Min VisibilityMiles, Max Wind SpeedMPH, Mean Wind SpeedMPH, Max Gust SpeedMPH,PrecipitationIn, CloudCover, Events, WindDirDegrees
2013-5-1,75,54,34,43,34,29,94,49,21,30.48,30.42,30.36,10,10,10,15,3,,0.00,0,,176
2013-5-2,80,58,37,44,38,30,99,49,20,30.46,30.39,30.28,10,10,10,10,2,25,0.00,2,,103
2013-5-3,68,54,42,42,38,33,95,54,36,30.51,30.43,30.36,10,10,7,15,7,,0.00,1,,67
2013-5-4,72,54,37,46,35,17,98,55,14,30.38,30.30,30.24,10,10,10,16,3,21,0.00,0,,51
2013-5-5,71,51,32,43,35,29,98,55,23,30.33,30.27,30.19,10,10,10,14,4,17,0.00,0,,129
2013-5-6,73,54,37,49,42,34,100,80,26,30.30,30.24,30.11,10,10,2,12,3,,0.00,4,,194
2013-5-7,80,59,39,56,44,37,100,89,33,30.17,30.15,30.06,10,3,0,15,3,,0.00,0,Fog,49
2013-5-8,73,62,51,64,60,52,100,92,55,30.17,30.08,30.03,10,8,1,13,5,24,0.35,6,Rain,122
2013-5-9,68,60,53,62,56,54,100,94,64,30.03,29.94,29.87,10,4,0,9,2,,0.08,5,Fog-Rain,108
2013-5-10,80,66,53,63,55,53,100,92,42,29.99,29.93,29.89,10,2,0,14,2,21,0.00,5,Fog-Rain,172
2013-5-11,67,62,59,64,61,54,100,96,72,29.88,29.73,28.54,10,8,4,20,10,26,0.28,7,Rain,183
2013-5-12,68,58,48,61,50,25,100,74,34,29.85,29.67,29.61,10,9,6,22,7,33,0.00,6,Rain,283
2013-5-13,56,48,39,32,27,25,75,46,31,30.07,29.97,29.86,10,10,10,15,8,23,0.00,5,,278
2013-5-14,59,46,34,36,29,24,94,53,30,30.09,30.05,30.01,10,10,10,10,5,,0.00,5,,348
2013-5-15,62,45,28,54,44,28,99,77,41,30.06,29.86,29.68,10,10,10,22,7,34,0.05,4,Rain,176
2013-5-16,83,63,44,53,44,35,100,82,18,29.81,29.70,29.66,10,3,0,22,4,29,0.00,2,Fog,243
2013-5-17,71,56,42,43,38,32,98,49,27,30.23,30.06,29.83,10,10,10,17,8,23,0.00,1,Rain,20
2013-5-18,73,54,37,47,42,36,99,64,28,30.33,30.28,30.24,10,10,10,17,4,23,0.00,2,,164
2013-5-19,64,53,42,57,53,43,100,92,64,30.36,30.28,30.19,10,7,1,14,4,,0.17,6,Rain,170
2013-5-20,82,68,55,66,59,55,100,93,52,30.19,30.05,29.93,10,5,0,7,3,,0.02,4,Fog-Rain,193
2013-5-21,90,73,55,72,61,54,100,95,46,30.00,29.93,29.79,10,4,0,20,3,28,0.23,3,Fog-Rain-Thunderstorm,74
2013-5-22,79,65,53,70,59,52,100,93,73,30.02,29.92,29.85,10,9,3,13,8,22,0.37,7,Rain-Thunderstorm,170
2013-5-23,73,68,64,72,67,64,100,98,87,29.89,29.84,29.77,10,5,0,16,11,20,1.50,8,Rain-Thunderstorm,181
2013-5-24,66,56,46,66,56,45,100,94,72,29.91,29.77,29.64,10,9,2,14,9,21,0.74,8,Rain,273
2013-5-25,47,45,42,46,44,38,100,94,81,29.87,29.82,29.79,10,10,4,21,12,26,0.70,8,Rain,352
2013-5-26,55,47,37,45,41,37,99,74,55,30.15,29.94,29.81,10,10,7,23,12,31,0.04,7,Rain,324
2013-5-27,72,52,33,44,37,32,100,56,22,30.20,30.14,30.10,10,9,2,17,5,25,0.00,0,Rain,301
2013-5-28,73,55,37,57,43,37,100,82,33,30.25,30.20,30.16,10,7,0,14,4,20,0.00,3,Fog,77
2013-5-29,79,68,57,68,60,57,100,96,69,30.18,30.08,29.99,10,7,0,29,4,36,1.13,7,Rain-Thunderstorm,171
2013-5-30,90,74,59,72,63,59,100,94,46,30.13,30.07,30.04,10,4,0,10,2,,0.00,4,Fog-Rain,173
2013-5-31,93,76,60,70,63,57,100,95,29,30.13,30.08,29.96,10,2,0,14,2,20,0.00,0,Fog-Rain,43